Weather History for Newport News, VA

Change the Weather History Date:

Wednesday, October 9, 2013

  Actual Average Record
Temperature  
Mean Temperature 64 °F -  
Max Temperature 66 °F 73 °F 93 °F (2007)
Min Temperature 62 °F 56 °F 30 °F (2001)
Degree Days  
Heating Degree Days 1    
Growing Degree Days 14 (Base 50)    
Moisture  
Dew Point 59 °F    
Average Humidity 82    
Maximum Humidity 88    
Minimum Humidity 56    
Precipitation  
Precipitation 3.00 in - - ()
Sea Level Pressure  
Sea Level Pressure 30.11 in    
Wind  
Wind Speed 14 mph (NNE)    
Max Wind Speed 22 mph    
Max Gust Speed 31 mph    
Visibility 4 miles    
Events Rain    
Averages and records for this station are not official NWS values.
T = Trace of Precipitation, MM = Missing Value Source: NWS Daily Summary

Daily Weather History Graph

Daily Weather History Graph

Search for Another Location

Airport:

Trip Planner

Search our weather history database for the weather conditions in past years. The results will help you decide how hot, cold, wet, or windy it might be!

Date:

Astronomy

Oct. 09, 2013 Rise Set
Actual Time 7:08 AM EDT 6:37 PM EDT
Civil Twilight 6:42 AM EDT 7:03 PM EDT
Nautical Twilight 6:12 AM EDT 7:33 PM EDT
Astronomical Twilight 5:42 AM EDT 8:03 PM EDT
Moon 11:56 AM EDT (10/9) 10:14 PM EDT (10/9)
Length of Visible Light 12h 20m
Length of Day
11h 28m
Waxing Crescent, 25% of the Moon is Illuminated
Oct 9
Waxing Crescent
Oct 11
First Quarter
Oct 18
Full
Oct 26
Last Quarter
Nov 3
New

Hourly Weather History & Observations

Time (EDT) Temp. Dew Point Humidity Pressure Visibility Wind Dir Wind Speed Gust Speed Precip Events Conditions
12:54 AM 66.0 °F 51.1 °F 59% 30.18 in 10.0 mi NE 15.0 mph 25.3 mph N/A   Clear
1:54 AM 66.0 °F 50.0 °F 56% 30.18 in 10.0 mi NE 11.5 mph 24.2 mph N/A   Mostly Cloudy
2:54 AM 66.9 °F 53.1 °F 61% 30.17 in 10.0 mi NE 10.4 mph 18.4 mph N/A   Partly Cloudy
3:54 AM 66.9 °F 53.1 °F 61% 30.16 in 10.0 mi NE 13.8 mph 23.0 mph N/A   Scattered Clouds
4:54 AM 66.0 °F 55.0 °F 68% 30.14 in 10.0 mi NE 13.8 mph 24.2 mph 0.00 in Rain Light Rain
5:54 AM 66.9 °F 55.9 °F 68% 30.16 in 10.0 mi NE 13.8 mph 23.0 mph 0.00 in   Overcast
6:27 AM 66.2 °F 55.4 °F 68% 30.15 in 10.0 mi NE 16.1 mph 26.5 mph 0.00 in Rain Light Rain
6:54 AM 64.9 °F 57.0 °F 75% 30.15 in 10.0 mi NE 11.5 mph 19.6 mph 0.01 in Rain Light Rain
7:30 AM 66.2 °F 57.2 °F 73% 30.16 in 10.0 mi NE 17.3 mph 23.0 mph 0.00 in   Overcast
7:54 AM 66.9 °F 57.9 °F 73% 30.17 in 10.0 mi NE 11.5 mph 21.9 mph 0.00 in Rain Light Rain
8:52 AM 66.2 °F 57.2 °F 73% 30.17 in 9.0 mi NE 13.8 mph 21.9 mph 0.01 in Rain Light Rain
8:54 AM 66.0 °F 57.9 °F 75% 30.17 in 9.0 mi NE 13.8 mph 21.9 mph 0.01 in Rain Light Rain
9:33 AM 64.4 °F 59.0 °F 83% 30.17 in 5.0 mi NE 10.4 mph 20.7 mph 0.02 in Rain Light Rain
9:54 AM 64.0 °F 59.0 °F 84% 30.17 in 4.0 mi NE 11.5 mph 19.6 mph 0.05 in Rain Rain
10:54 AM 64.0 °F 59.0 °F 84% 30.16 in 4.0 mi NE 13.8 mph 25.3 mph 0.17 in Rain Rain
11:54 AM 64.9 °F 59.0 °F 81% 30.16 in 6.0 mi NE 11.5 mph 23.0 mph 0.08 in Rain Light Rain
12:42 PM 64.4 °F 59.0 °F 83% 30.15 in 5.0 mi NNE 12.7 mph 20.7 mph 0.05 in Rain Light Rain
12:54 PM 64.0 °F 59.0 °F 84% 30.15 in 4.0 mi NNE 12.7 mph 21.9 mph 0.08 in Rain Rain
1:54 PM 64.0 °F 60.1 °F 87% 30.12 in 2.5 mi NNE 15.0 mph 21.9 mph 0.15 in Rain Rain
2:00 PM 64.4 °F 60.8 °F 88% 30.12 in 3.0 mi NNE 12.7 mph 21.9 mph 0.01 in Rain Rain
2:41 PM 64.4 °F 60.8 °F 88% 30.11 in 7.0 mi NNE 17.3 mph 27.6 mph 0.09 in Rain Light Rain
2:51 PM 64.4 °F 59.0 °F 83% 30.11 in 1.8 mi NNE 15.0 mph 28.8 mph 0.16 in Rain Heavy Rain
2:54 PM 64.0 °F 60.1 °F 87% 30.11 in 1.2 mi NNE 13.8 mph 28.8 mph 0.21 in Rain Heavy Rain
3:07 PM 64.4 °F 59.0 °F 83% 30.11 in 2.0 mi NNE 16.1 mph 24.2 mph 0.10 in Rain Rain
3:15 PM 64.4 °F 60.8 °F 88% 30.11 in 3.0 mi NNE 18.4 mph 26.5 mph 0.13 in Rain Rain
3:22 PM 64.4 °F 60.8 °F 88% 30.10 in 2.0 mi NNE 17.3 mph 26.5 mph 0.15 in Rain Rain
3:27 PM 64.4 °F 60.8 °F 88% 30.10 in 1.8 mi NNE 16.1 mph 24.2 mph 0.17 in Rain Rain
3:37 PM 64.4 °F 60.8 °F 88% 30.10 in 3.0 mi NNE 16.1 mph 25.3 mph 0.19 in Rain Light Rain
3:45 PM 64.4 °F 60.8 °F 88% 30.10 in 2.5 mi NNE 16.1 mph 27.6 mph 0.21 in Rain Rain
3:51 PM 64.4 °F 60.8 °F 88% 30.10 in 1.5 mi NNE 18.4 mph 31.1 mph 0.24 in Rain Heavy Rain
3:54 PM 64.0 °F 60.1 °F 87% 30.10 in 1.5 mi NNE 17.3 mph 31.1 mph 0.25 in Rain Heavy Rain
3:59 PM 64.4 °F 60.8 °F 88% 30.10 in 1.8 mi NNE 21.9 mph 28.8 mph 0.02 in Rain Rain
4:05 PM 64.4 °F 60.8 °F 88% 30.10 in 2.0 mi NNE 17.3 mph 28.8 mph 0.04 in Rain Rain
4:16 PM 64.4 °F 60.8 °F 88% 30.10 in 3.0 mi NNE 15.0 mph 31.1 mph 0.06 in Rain Light Rain
4:20 PM 64.4 °F 60.8 °F 88% 30.10 in 2.5 mi NNE 17.3 mph 31.1 mph 0.07 in Rain Rain
4:34 PM 64.4 °F 60.8 °F 88% 30.10 in 2.0 mi NNE 18.4 mph 27.6 mph 0.10 in Rain Rain
4:42 PM 64.4 °F 60.8 °F 88% 30.10 in 2.0 mi NNE 17.3 mph 31.1 mph 0.13 in Rain Rain
4:48 PM 64.4 °F 60.8 °F 88% 30.10 in 2.0 mi NNE 15.0 mph 31.1 mph 0.14 in Rain Rain
4:54 PM 64.0 °F 60.1 °F 87% 30.10 in 2.0 mi NNE 21.9 mph 28.8 mph 0.16 in Rain Rain
5:09 PM 64.4 °F 59.0 °F 83% 30.09 in 3.0 mi NNE 17.3 mph 27.6 mph 0.04 in Rain Rain
5:23 PM 64.4 °F 59.0 °F 83% 30.09 in 5.0 mi NNE 13.8 mph 27.6 mph 0.05 in Rain Light Rain
5:54 PM 64.0 °F 59.0 °F 84% 30.09 in 3.0 mi NNE 12.7 mph 28.8 mph 0.08 in Rain Light Rain
6:12 PM 64.4 °F 59.0 °F 83% 30.09 in 2.5 mi NNE 17.3 mph 24.2 mph 0.04 in Rain Light Rain
6:20 PM 64.4 °F 59.0 °F 83% 30.09 in 4.0 mi NNE 17.3 mph 27.6 mph 0.06 in Rain Light Rain
6:35 PM 62.6 °F 59.0 °F 88% 30.09 in 2.5 mi NNE 16.1 mph 26.5 mph 0.12 in Rain Rain
6:54 PM 63.0 °F 59.0 °F 87% 30.08 in 2.5 mi NNE 17.3 mph 26.5 mph 0.21 in Rain Rain
7:03 PM 62.6 °F 59.0 °F 88% 30.08 in 3.0 mi NNE 13.8 mph 24.2 mph 0.04 in Rain Rain
7:16 PM 62.6 °F 59.0 °F 88% 30.08 in 2.5 mi NNE 12.7 mph 28.8 mph 0.13 in Rain Heavy Rain
7:42 PM 62.6 °F 59.0 °F 88% 30.07 in 3.0 mi NNE 15.0 mph 26.5 mph 0.34 in Rain Heavy Rain
7:50 PM 62.6 °F 59.0 °F 88% 30.07 in 4.0 mi NNE 16.1 mph 26.5 mph 0.37 in Rain Rain
7:54 PM 63.0 °F 59.0 °F 87% 30.06 in 4.0 mi NNE 12.7 mph 23.0 mph 0.39 in Rain Rain
8:07 PM 62.6 °F 59.0 °F 88% 30.07 in 2.5 mi NNE 13.8 mph 24.2 mph 0.10 in Rain Heavy Rain
8:39 PM 62.6 °F 59.0 °F 88% 30.06 in 2.5 mi NNE 16.1 mph 28.8 mph 0.36 in Rain Heavy Rain
8:54 PM 63.0 °F 59.0 °F 87% 30.07 in 1.8 mi NNE 10.4 mph 23.0 mph 0.56 in Rain Heavy Rain
9:01 PM 62.6 °F 59.0 °F 88% 30.07 in 2.0 mi NNE 11.5 mph 20.7 mph 0.08 in Rain Heavy Rain
9:36 PM 64.4 °F 59.0 °F 83% 30.06 in 4.0 mi NNE 16.1 mph 25.3 mph 0.28 in Rain Rain
9:54 PM 64.0 °F 59.0 °F 84% 30.06 in 3.0 mi NNE 16.1 mph 29.9 mph 0.36 in Rain Rain
10:54 PM 64.9 °F 60.1 °F 84% 30.04 in 3.0 mi NNE 12.7 mph 25.3 mph 0.13 in Rain Rain
11:54 PM 64.9 °F 61.0 °F 87% 30.02 in 3.0 mi NNE 18.4 mph 26.5 mph 0.10 in Rain Light Rain